Weather Roundup
Issued by NWS Springfield, MO

Home | Current Version | Previous Version | Text Only | Print | Product List | Glossary On
Versions: 1 2 3 4 5 6 7 8 9 10 11 12 13 14 15 16 17 18 19 20 21 22 23 24 25 26 27 28 29 30 31 32 33 34 35 36 37 38 39 40 41 42 43 44 45 46 47 48 49 50
000
NZUS99 KSGF 040857
HRRSGF

HOURLY WEATHER
NATIONAL WEATHER SERVICE SPRINGFIELD MO
400 AM CDT FRI SEP 04 2015

......SGF CWA......

CITY           SKY/WX    TMP DP  RH WIND       PRES   REMARKS
SPRINGFIELD    CLEAR     72  67  84 SE7       29.98S
JOPLIN         MOCLDY    74  67  78 SE8       29.95S
WEST PLAINS    CLEAR     69  65  86 CALM      30.03R
ROLLA          CLEAR     71  67  87 S8        29.99R

......SURROUNDING SGF CWA......

CITY           SKY/WX    TMP DP  RH WIND       PRES   REMARKS
CHANUTE        MOCLDY    73  69  87 SE7       29.93S
PARSONS        MOCLDY    73  69  87 CALM      29.94R
COFFEYVILLE    PTCLDY    72  68  87 S6        29.93R
EMPORIA        MOCLDY    72  68  87 S13       29.92S
HARRISON AR    CLEAR     68  67  96 SE3       30.01R

......KANSAS AND MISSOURI......

CITY           SKY/WX    TMP DP  RH WIND       PRES   REMARKS
KANSAS CTY INT PTCLDY    73  67  81 S10       29.94R
SEDALIA        PTCLDY    72  67  84 S6        29.97S
ST JOSEPH      MOCLDY    72  68  87 S5        29.92S
ST LOUIS       CLEAR     78  68  71 SW3       29.98R
WICHITA        PTCLDY    74  64  71 SE10      29.90S
TOPEKA         MOCLDY    75  68  78 S8        29.91S
OLATHE         PTCLDY    70  67  90 S3        29.94S

......TENNESSEE......

CITY           SKY/WX    TMP DP  RH WIND       PRES   REMARKS
MEMPHIS        NOT AVBL
NASHVILLE      CLEAR     75  68  78 CALM      29.99S

......ARKANSAS.......

CITY           SKY/WX    TMP DP  RH WIND       PRES   REMARKS
FAYETTEVILLE   CLEAR     67  67 100 CALM      29.99S FOG
FT SMITH       CLEAR     73  68  84 E5        29.94S
LITTLE ROCK    CLEAR     74  69  85 CALM      29.95S

......OKLAHOMA.......

CITY           SKY/WX    TMP DP  RH WIND       PRES   REMARKS
TULSA          CLOUDY    73  71  93 SE6       29.91S
PONCA CITY     MOCLDY    76  64  66 S9        29.90S
MCALESTER      MOCLDY    74  64  71 E3        29.94S
OKLAHOMA CITY  PTCLDY    70  65  84 SE8       29.92S

......IOWA............

CITY           SKY/WX    TMP DP  RH WIND       PRES   REMARKS
DES MOINES     NOT AVBL
QUAD CITIES    CLEAR     71  67  87 CALM      29.95R

......ILLINOIS........

CITY           SKY/WX    TMP DP  RH WIND       PRES   REMARKS
QUINCY         CLEAR     71  68  90 S6        29.97R
CHICAGO        CLEAR     69  66  90 N5        29.97S



USA.gov is the U.S. government's official web portal to all federal, state and local government web resources and services.